Regional Weather Roundup
Issued by NWS Charleston, SC

Current Version | Previous Version | Text Only | Print | Product List | Glossary Off
Versions: 1 2 3 4 5 6 7 8 9 10 11 12 13 14 15 16 17 18 19 20 21 22 23 24 25 26 27 28 29 30 31 32 33 34 35 36 37 38 39 40 41 42 43 44 45 46 47 48 49 50
000 ASUS42 KCHS 282012 RWRCHS REGIONAL WEATHER ROUNDUP NATIONAL WEATHER SERVICE CHARLESTON SC 400 PM EDT TUE MAR 28 2017 NOTE: "FAIR" INDICATES FEW OR NO CLOUDS BELOW 12,000 FEET WITH NO SIGNIFICANT WEATHER AND/OR OBSTRUCTIONS TO VISIBILITY. NOT ALL STATIONS ARE QUALITY CONTROLLED. USE DATA WITH CAUTION... ESPECIALLY DEWPOINT OBSERVATIONS. SCZ027-030-031-034>040-042>050-282100- ...SOUTHEAST SOUTH CAROLINA... CITY SKY/WX TMP DP RH WIND PRES REMARKS N CHARLESTON PTSUNNY 83 60 45 S17 29.90F WATERFRONT PRK N/A 73 64 73 SW15 29.90F JOHNS ISLAND FAIR 77 63 61 S15 29.92F PINOPOLIS N/A 75 61 60 W12 29.83F MONCKS CORNER MOCLDY 81 52 36 W6 29.90S SUMMERVILLE FAIR 81 57 44 W7 29.91F BEAUFORT MCAS MOSUNNY 87 57 35 W12G22 29.91F BEAUFORT ARPT FAIR 81 63 54 S7 29.92F HILTON HEAD IS MOSUNNY 77 63 61 S15 29.94F WALTERBORO CLOUDY 81 59 47 W15 29.91F ALLENDALE FAIR 82 61 47 VRB5G20 29.91S ...SOUTHERN MIDLANDS AND PEE DEE... CITY SKY/WX TMP DP RH WIND PRES REMARKS GEORGETOWN FAIR 79 61 53 S15 29.90F KINGSTREE MOCLDY 82 54 36 SW9G17 29.89F ORANGEBURG PTSUNNY 82 58 43 NW15G23 29.91F BARNWELL FAIR 86 63 45 W8G15 29.91F AIKEN FAIR 79 57 47 W10 29.95F MANNING FAIR 81 55 41 NW6G20 29.90F COLUMBIA MOSUNNY 83 58 42 W16 29.89F SUMTER MOSUNNY 83 56 38 W10 29.87S FLORENCE MOSUNNY 82 56 40 W10 29.87F MYRTLE BEACH PTSUNNY 73 61 64 S17 29.90F N MYRTLE BEACH MOSUNNY 69 61 75 SW20 29.89F $$ GAZ063-065-086>088-099>101-113>116-118-119-134>141-150-282100- ...SOUTHEAST GEORGIA... CITY SKY/WX TMP DP RH WIND PRES REMARKS SAVANNAH ARPT MOSUNNY 87 55 33 W14 29.93F HUNTER AAF SUNNY 86 60 42 SW9G17 29.91F FORT STEWART MOSUNNY 85 57 38 W9G20 29.92F STATESBORO MOSUNNY 85 62 44 W13G22 29.92F SYLVANIA MOCLDY N/A N/A N/A W12G21 29.92F CLAXTON FAIR 83 62 48 SW7G16 29.93F ...CSRA...CENTRAL AND FAR SOUTHEAST GEORGIA... CITY SKY/WX TMP DP RH WIND PRES REMARKS THOMSON MOSUNNY 80 59 49 N12 29.97F AUGUSTA-BUSH MOSUNNY 84 59 42 W15G21 29.91F AUGUSTA-DANIEL MOSUNNY 81 56 42 SW8 29.93F SWAINSBORO MOCLDY 81 61 50 W14G20 29.95F VIDALIA CLOUDY 82 59 44 W7 29.95F EASTMAN MOCLDY 83 42 23 NW6 29.98F HAZLEHURST FAIR 85 59 41 SW9 29.95F ALMA SUNNY 82 59 45 W10G17 29.97F WAYCROSS MOSUNNY 87 62 43 W10G18 29.97F JESUP FAIR 86 52 30 W6G21 29.96F BAXLEY PTSUNNY 81 64 57 W5 29.96F BRUNSWICK PTSUNNY 88 61 40 NW10G18 29.96F SAINT SIMONS PTSUNNY 76 63 64 SE12 29.96F $$ SCZ027-028-034-036>038-045-046-048>050-GAZ119-141-282100- ...LAKE AND SUPPLEMENTAL COASTAL OBSERVATIONS... STATION/POSITION TIME TEMP WIND PRES WAVE SWELL AIR SEA DIR/SP/G HT/PER HT/PER/DIR (UTC) (F) (DEG/KT/KT) (MB) (FT/S) (FT/S/D) WINYAH BAY NOT AVBL LAKE MURRAY 1920 77 220/ 11/ 14 1012.2 ACE BASIN NERRS 1845 80 190/ 3 1014.0 FORT PULASKI 1948 77 65 190/ 6/ 12 1014.0F SAPELO ISLAND 1900 81 250/ 9 1015.0 $$ ANZ835-935-AMZ111-154-330-350-352-354-370-450-454-472-282100- ...C-MAN AND BUOY OBSERVATIONS... STATION/POSITION TIME TEMP WIND PRES WAVE SWELL AIR SEA DIR/SP/G HT/PER HT/PER/DIR (UTC) (F) (DEG/KT/KT) (MB) (FT/S) (FT/S/D) BUOY 41004 NOT AVBL BUOY 41008 NOT AVBL FOLLY BEACH CMAN 1900 67 200/ 13/ 15 1014.7F CAPERS NEARSHORE NOT AVBL FRIPP NEARSHORE NOT AVBL STATION/POSITION TIME TEMP WIND PRES WAVE SWELL AIR SEA DIR/SP/G HT/PER HT/PER/DIR (UTC) (F) (DEG/KT/KT) (MB) (FT/S) (FT/S/D) 5E ST. MARYS GA NOT AVBL FRYING PAN BUOY NOT AVBL BUOY 41025 NOT AVBL CAPE LOOKOUT NC 1900 70 210/ 11/ 16 1013.2F BUOY 41002 NOT AVBL BUOY 41010 NOT AVBL ST AUGUSTINE FL 2000 70 69 140/ 10/ 11 1016.2F $$

USA.gov is the U.S. government's official web portal to all federal, state and local government web resources and services.